Time,TemperatureF,DewpointF,PressureIn,WindDirection,WindDirectionDegrees,WindSpeedMPH,WindSpeedGustMPH,Humidity,HourlyPrecipIn,Conditions,Clouds,dailyrainin,SoftwareType,DateUTC
2013-03-29 00:00:00,56.1,44.6,29.92,ESE,112,8.5,10.3,65,0.00,,,0.00,WUHU21623XXSP,2013-03-29 07:00:00,
2013-03-29 00:05:00,55.9,44.8,29.92,ESE,112,5.4,10.3,66,0.00,,,0.00,WUHU21623XXSP,2013-03-29 07:05:00,
2013-03-29 00:10:00,55.7,44.6,29.92,ESE,112,0.0,8.5,66,0.00,,,0.00,WUHU21623XXSP,2013-03-29 07:10:00,
2013-03-29 00:15:00,55.7,44.6,29.92,East,90,0.0,6.9,66,0.00,,,0.00,WUHU21623XXSP,2013-03-29 07:15:00,
2013-03-29 00:20:00,55.7,44.2,29.92,East,90,2.2,7.8,65,0.00,,,0.00,WUHU21623XXSP,2013-03-29 07:20:00,
2013-03-29 00:25:00,55.7,44.2,29.92,ESE,112,0.0,7.8,65,0.00,,,0.00,WUHU21623XXSP,2013-03-29 07:25:00,
2013-03-29 00:30:00,55.4,44.0,29.92,ESE,112,2.9,5.6,65,0.00,,,0.00,WUHU21623XXSP,2013-03-29 07:30:00,
2013-03-29 00:35:00,55.4,44.4,29.92,ESE,112,0.0,5.8,66,0.00,,,0.00,WUHU21623XXSP,2013-03-29 07:35:00,
2013-03-29 00:40:00,55.4,44.4,29.92,ESE,112,0.0,5.8,66,0.00,,,0.00,WUHU21623XXSP,2013-03-29 07:40:00,
2013-03-29 00:45:00,55.4,44.0,29.92,ESE,112,0.0,4.8,65,0.00,,,0.00,WUHU21623XXSP,2013-03-29 07:45:00,
2013-03-29 00:50:00,55.4,44.0,29.92,ESE,108,4.8,4.8,65,0.00,,,0.00,WUHU21623XXSP,2013-03-29 07:50:00,
2013-03-29 00:55:00,55.0,43.6,29.92,ESE,112,0.0,4.8,65,0.00,,,0.00,WUHU21623XXSP,2013-03-29 07:55:00,
2013-03-29 01:00:00,55.6,43.7,29.92,ENE,67,0.0,4.8,64,0.00,,,0.00,WUHU21623XXSP,2013-03-29 08:00:00,
2013-03-29 01:05:00,55.7,43.4,29.92,ENE,67,0.0,0.0,63,0.00,,,0.00,WUHU21623XXSP,2013-03-29 08:05:00,
2013-03-29 01:10:00,55.6,43.3,29.92,East,90,0.0,0.0,63,0.00,,,0.00,WUHU21623XXSP,2013-03-29 08:10:00,
2013-03-29 01:15:00,55.4,43.1,29.92,North,0,0.0,0.0,63,0.00,,,0.00,WUHU21623XXSP,2013-03-29 08:15:00,
2013-03-29 01:20:00,55.0,42.8,29.92,North,0,0.0,0.0,63,0.00,,,0.00,WUHU21623XXSP,2013-03-29 08:20:00,
2013-03-29 01:25:00,54.8,43.0,29.92,North,0,0.0,0.0,64,0.00,,,0.00,WUHU21623XXSP,2013-03-29 08:25:00,
2013-03-29 01:30:00,54.8,43.0,29.92,North,0,0.0,0.0,64,0.00,,,0.00,WUHU21623XXSP,2013-03-29 08:30:00,
2013-03-29 01:35:00,54.5,42.7,29.92,NE,45,0.0,0.0,64,0.00,,,0.00,WUHU21623XXSP,2013-03-29 08:35:00,
2013-03-29 01:40:00,54.5,42.7,29.92,NNE,22,0.0,0.0,64,0.00,,,0.00,WUHU21623XXSP,2013-03-29 08:40:00,
2013-03-29 01:45:00,54.1,42.7,29.92,NNE,22,0.0,0.0,65,0.00,,,0.00,WUHU21623XXSP,2013-03-29 08:45:00,
2013-03-29 01:50:00,53.9,42.5,29.92,North,0,0.0,0.0,65,0.00,,,0.00,WUHU21623XXSP,2013-03-29 08:50:00,
2013-03-29 01:55:00,54.1,42.3,29.92,NNE,22,0.0,0.0,64,0.00,,,0.00,WUHU21623XXSP,2013-03-29 08:55:00,
2013-03-29 02:00:00,54.3,42.5,29.92,North,0,0.0,0.0,64,0.00,,,0.00,WUHU21623XXSP,2013-03-29 09:00:00,
2013-03-29 02:05:00,54.1,42.7,29.92,North,0,0.0,0.0,65,0.00,,,0.00,WUHU21623XXSP,2013-03-29 09:05:00,
2013-03-29 02:10:00,53.9,42.9,29.92,ESE,112,0.0,0.0,66,0.00,,,0.00,WUHU21623XXSP,2013-03-29 09:10:00,
2013-03-29 02:15:00,53.8,43.2,29.92,SE,135,0.0,0.0,67,0.00,,,0.00,WUHU21623XXSP,2013-03-29 09:15:00,
2013-03-29 02:20:00,53.6,42.6,29.92,SE,135,0.0,0.0,66,0.00,,,0.00,WUHU21623XXSP,2013-03-29 09:20:00,
2013-03-29 02:25:00,53.4,42.4,29.92,ENE,67,0.0,0.0,66,0.00,,,0.00,WUHU21623XXSP,2013-03-29 09:25:00,
2013-03-29 02:30:00,53.2,42.3,29.92,North,0,0.0,0.0,66,0.00,,,0.00,WUHU21623XXSP,2013-03-29 09:30:00,
2013-03-29 02:36:00,53.0,42.1,29.92,North,0,0.0,0.0,66,0.00,,,0.00,WUHU21623XXSP,2013-03-29 09:36:00,
2013-03-29 02:40:00,53.0,42.5,29.92,East,90,0.0,0.0,67,0.00,,,0.00,WUHU21623XXSP,2013-03-29 09:40:00,
2013-03-29 02:45:00,52.9,42.0,29.92,East,90,0.0,0.0,66,0.00,,,0.00,WUHU21623XXSP,2013-03-29 09:45:00,
2013-03-29 02:50:00,52.7,41.8,29.92,East,90,0.0,0.0,66,0.00,,,0.00,WUHU21623XXSP,2013-03-29 09:50:00,
2013-03-29 02:56:00,52.5,42.0,29.92,SE,135,0.0,0.0,67,0.00,,,0.00,WUHU21623XXSP,2013-03-29 09:56:00,
2013-03-29 03:00:00,52.7,41.8,29.92,North,0,0.0,0.0,66,0.00,,,0.00,WUHU21623XXSP,2013-03-29 10:00:00,
2013-03-29 03:06:00,53.0,41.7,29.92,North,0,0.0,0.0,65,0.00,,,0.00,WUHU21623XXSP,2013-03-29 10:06:00,
2013-03-29 03:10:00,53.0,41.7,29.92,NE,45,0.0,0.0,65,0.00,,,0.00,WUHU21623XXSP,2013-03-29 10:10:00,
2013-03-29 03:16:00,52.7,41.4,29.92,North,0,0.0,0.0,65,0.00,,,0.00,WUHU21623XXSP,2013-03-29 10:16:00,
2013-03-29 03:21:00,52.5,41.2,29.92,NE,45,5.1,5.8,65,0.00,,,0.00,WUHU21623XXSP,2013-03-29 10:21:00,
2013-03-29 03:26:00,52.5,41.2,29.92,NE,45,0.0,5.8,65,0.00,,,0.00,WUHU21623XXSP,2013-03-29 10:26:00,
2013-03-29 03:31:00,52.3,41.4,29.91,NE,45,0.0,5.4,66,0.00,,,0.00,WUHU21623XXSP,2013-03-29 10:31:00,
2013-03-29 03:36:00,52.3,41.8,29.92,NNE,22,0.0,7.2,67,0.00,,,0.00,WUHU21623XXSP,2013-03-29 10:36:00,
2013-03-29 03:41:00,52.3,41.8,29.91,ESE,115,6.1,7.2,67,0.00,,,0.00,WUHU21623XXSP,2013-03-29 10:41:00,
2013-03-29 03:46:00,52.1,41.6,29.91,East,90,0.0,6.1,67,0.00,,,0.00,WUHU21623XXSP,2013-03-29 10:46:00,
2013-03-29 03:51:00,52.1,41.6,29.91,ESE,113,5.9,6.1,67,0.00,,,0.00,WUHU21623XXSP,2013-03-29 10:51:00,
2013-03-29 03:56:00,52.1,41.6,29.91,ESE,113,5.9,5.9,67,0.00,,,0.00,WUHU21623XXSP,2013-03-29 10:56:00,
2013-03-29 04:01:00,52.1,41.6,29.91,SSE,157,1.3,5.9,67,0.00,,,0.00,WUHU21623XXSP,2013-03-29 11:01:00,
2013-03-29 04:06:00,52.0,41.9,29.91,SE,124,4.3,5.9,68,0.00,,,0.00,WUHU21623XXSP,2013-03-29 11:06:00,
2013-03-29 04:11:00,51.8,41.7,29.91,SE,133,3.7,4.9,68,0.00,,,0.00,WUHU21623XXSP,2013-03-29 11:11:00,
2013-03-29 04:16:00,51.8,41.3,29.91,SE,131,3.9,4.2,67,0.00,,,0.00,WUHU21623XXSP,2013-03-29 11:16:00,
2013-03-29 04:21:00,51.8,40.9,29.91,SE,132,3.8,4.0,66,0.00,,,0.00,WUHU21623XXSP,2013-03-29 11:21:00,
2013-03-29 04:26:00,51.6,41.1,29.91,SE,132,3.8,3.9,67,0.00,,,0.00,WUHU21623XXSP,2013-03-29 11:26:00,
2013-03-29 04:32:00,51.2,41.1,29.91,SE,132,3.8,3.8,68,0.00,,,0.00,WUHU21623XXSP,2013-03-29 11:32:00,
2013-03-29 04:37:00,50.9,40.4,29.91,SE,132,3.8,3.8,67,0.00,,,0.00,WUHU21623XXSP,2013-03-29 11:37:00,
2013-03-29 04:42:00,50.9,40.4,29.92,ESE,112,0.0,3.8,67,0.00,,,0.00,WUHU21623XXSP,2013-03-29 11:42:00,
2013-03-29 04:47:00,50.9,40.4,29.92,SE,132,3.8,3.8,67,0.00,,,0.00,WUHU21623XXSP,2013-03-29 11:47:00,
2013-03-29 04:52:00,50.9,40.4,29.91,ESE,123,4.0,5.4,67,0.00,,,0.00,WUHU21623XXSP,2013-03-29 11:52:00,
2013-03-29 04:57:00,50.9,40.4,29.91,ESE,122,4.0,5.4,67,0.00,,,0.00,WUHU21623XXSP,2013-03-29 11:57:00,
2013-03-29 05:02:00,50.9,40.1,29.91,North,0,0.0,4.0,66,0.00,,,0.00,WUHU21623XXSP,2013-03-29 12:02:00,
2013-03-29 05:07:00,50.9,40.1,29.91,East,90,0.0,4.0,66,0.00,,,0.00,WUHU21623XXSP,2013-03-29 12:07:00,
2013-03-29 05:12:00,50.9,40.1,29.91,East,90,7.8,8.9,66,0.00,,,0.00,WUHU21623XXSP,2013-03-29 12:12:00,
2013-03-29 05:17:00,50.9,40.4,29.91,ENE,67,6.7,12.5,67,0.00,,,0.00,WUHU21623XXSP,2013-03-29 12:17:00,
2013-03-29 05:22:00,50.9,40.8,29.91,ENE,76,7.1,12.5,68,0.00,,,0.00,WUHU21623XXSP,2013-03-29 12:22:00,
2013-03-29 05:27:00,51.1,41.4,29.91,East,80,6.4,7.6,69,0.00,,,0.00,WUHU21623XXSP,2013-03-29 12:27:00,
2013-03-29 05:32:00,50.9,41.2,29.91,East,82,6.2,7.0,69,0.00,,,0.00,WUHU21623XXSP,2013-03-29 12:32:00,
2013-03-29 05:37:00,51.1,41.4,29.91,East,81,6.2,8.3,69,0.00,,,0.00,WUHU21623XXSP,2013-03-29 12:37:00,
2013-03-29 05:42:00,51.2,41.5,29.91,East,81,6.3,8.3,69,0.00,,,0.00,WUHU21623XXSP,2013-03-29 12:42:00,
2013-03-29 05:47:00,51.2,41.5,29.91,East,82,6.4,8.5,69,0.00,,,0.00,WUHU21623XXSP,2013-03-29 12:47:00,
2013-03-29 05:52:00,51.4,41.3,29.92,East,83,6.5,8.5,68,0.00,,,0.00,WUHU21623XXSP,2013-03-29 12:52:00,
2013-03-29 05:57:00,51.8,41.3,29.92,East,83,6.5,6.6,67,0.00,,,0.00,WUHU21623XXSP,2013-03-29 12:57:00,
2013-03-29 06:02:00,51.4,41.3,29.92,SW,225,0.0,6.6,68,0.00,,,0.00,WUHU21623XXSP,2013-03-29 13:02:00,
2013-03-29 06:07:00,51.4,40.9,29.92,SW,225,0.0,6.5,67,0.00,,,0.00,WUHU21623XXSP,2013-03-29 13:07:00,
2013-03-29 06:12:00,51.2,41.1,29.92,SW,225,0.0,6.5,68,0.00,,,0.00,WUHU21623XXSP,2013-03-29 13:12:00,
2013-03-29 06:17:00,51.2,41.1,29.92,East,96,5.3,6.5,68,0.00,,,0.00,WUHU21623XXSP,2013-03-29 13:17:00,
2013-03-29 06:22:00,51.2,41.1,29.92,ESE,112,0.0,6.5,68,0.00,,,0.00,WUHU21623XXSP,2013-03-29 13:22:00,
2013-03-29 06:27:00,51.2,41.1,29.92,ENE,67,0.0,5.6,68,0.00,,,0.00,WUHU21623XXSP,2013-03-29 13:27:00,
2013-03-29 06:32:00,51.2,41.1,29.92,ENE,67,0.0,4.6,68,0.00,,,0.00,WUHU21623XXSP,2013-03-29 13:32:00,
2013-03-29 06:37:00,51.2,41.1,29.92,ESE,112,0.0,4.4,68,0.00,,,0.00,WUHU21623XXSP,2013-03-29 13:37:00,
2013-03-29 06:42:00,51.2,41.1,29.92,East,87,4.4,4.4,68,0.00,,,0.00,WUHU21623XXSP,2013-03-29 13:42:00,
2013-03-29 06:47:00,51.2,41.1,29.92,ENE,67,0.0,5.4,68,0.00,,,0.00,WUHU21623XXSP,2013-03-29 13:47:00,
2013-03-29 06:52:00,51.2,41.1,29.92,SE,135,0.0,6.9,68,0.00,,,0.00,WUHU21623XXSP,2013-03-29 13:52:00,
2013-03-29 06:57:00,51.4,41.3,29.92,SE,135,0.0,6.9,68,0.00,,,0.00,WUHU21623XXSP,2013-03-29 13:57:00,
2013-03-29 07:02:00,51.4,41.3,29.92,NE,45,0.0,5.1,68,0.00,,,0.00,WUHU21623XXSP,2013-03-29 14:02:00,
2013-03-29 07:07:00,51.4,41.3,29.92,ESE,112,6.5,9.2,68,0.00,,,0.00,WUHU21623XXSP,2013-03-29 14:07:00,
2013-03-29 07:13:00,51.4,41.3,29.92,ENE,69,5.8,11.6,68,0.00,,,0.00,WUHU21623XXSP,2013-03-29 14:13:00,
2013-03-29 07:17:00,51.4,41.7,29.92,NNE,22,0.0,11.6,69,0.00,,,0.00,WUHU21623XXSP,2013-03-29 14:17:00,
2013-03-29 07:23:00,51.6,41.5,29.92,ENE,67,0.0,6.0,68,0.00,,,0.00,WUHU21623XXSP,2013-03-29 14:23:00,
2013-03-29 07:28:00,51.8,41.7,29.92,ENE,68,7.0,11.9,68,0.00,,,0.00,WUHU21623XXSP,2013-03-29 14:28:00,
2013-03-29 07:33:00,52.0,41.9,29.92,NE,45,0.0,11.9,68,0.00,,,0.00,WUHU21623XXSP,2013-03-29 14:33:00,
2013-03-29 07:38:00,52.1,42.4,29.92,NE,45,0.0,12.8,69,0.00,,,0.00,WUHU21623XXSP,2013-03-29 14:38:00,
2013-03-29 07:42:00,52.3,42.5,29.93,East,80,5.6,12.8,69,0.00,,,0.00,WUHU21623XXSP,2013-03-29 14:42:00,
2013-03-29 07:47:00,52.5,42.7,29.93,ESE,112,8.1,8.5,69,0.00,,,0.00,WUHU21623XXSP,2013-03-29 14:47:00,
2013-03-29 07:52:00,52.7,43.3,29.93,NE,45,2.9,9.2,70,0.00,,,0.00,WUHU21623XXSP,2013-03-29 14:52:00,
2013-03-29 07:57:00,53.0,43.6,29.93,SE,135,6.0,9.2,70,0.00,,,0.00,WUHU21623XXSP,2013-03-29 14:57:00,
2013-03-29 08:03:00,53.2,43.8,29.93,NE,45,0.0,7.8,70,0.00,,,0.00,WUHU21623XXSP,2013-03-29 15:03:00,
2013-03-29 08:08:00,53.4,44.0,29.93,NNE,22,0.0,5.6,70,0.00,,,0.00,WUHU21623XXSP,2013-03-29 15:08:00,
2013-03-29 08:13:00,53.6,44.2,29.93,ENE,67,0.0,5.6,70,0.00,,,0.00,WUHU21623XXSP,2013-03-29 15:13:00,
2013-03-29 08:18:00,53.9,44.5,29.93,ENE,60,5.6,8.5,70,0.00,,,0.00,WUHU21623XXSP,2013-03-29 15:18:00,
2013-03-29 08:23:00,54.1,44.6,29.93,East,90,4.9,8.5,70,0.00,,,0.00,WUHU21623XXSP,2013-03-29 15:23:00,
2013-03-29 08:28:00,54.5,45.0,29.93,East,90,4.5,7.8,70,0.00,,,0.00,WUHU21623XXSP,2013-03-29 15:28:00,
2013-03-29 08:33:00,54.8,45.3,29.93,East,81,5.9,8.9,70,0.00,,,0.00,WUHU21623XXSP,2013-03-29 15:33:00,
2013-03-29 08:38:00,55.0,45.5,29.93,East,81,5.6,9.6,70,0.00,,,0.00,WUHU21623XXSP,2013-03-29 15:38:00,
2013-03-29 08:43:00,55.4,45.5,29.93,East,82,5.9,9.6,69,0.00,,,0.00,WUHU21623XXSP,2013-03-29 15:43:00,
2013-03-29 08:48:00,55.6,45.7,29.93,ENE,67,4.7,8.9,69,0.00,,,0.00,WUHU21623XXSP,2013-03-29 15:48:00,
2013-03-29 08:53:00,55.9,46.0,29.93,East,80,6.0,10.3,69,0.00,,,0.00,WUHU21623XXSP,2013-03-29 15:53:00,
2013-03-29 08:58:00,56.3,46.0,29.94,ENE,77,6.5,12.3,68,0.00,,,0.00,WUHU21623XXSP,2013-03-29 15:58:00,
2013-03-29 09:03:00,56.6,46.3,29.94,ENE,76,6.9,12.3,68,0.00,,,0.00,WUHU21623XXSP,2013-03-29 16:03:00,
2013-03-29 09:08:00,56.8,46.5,29.94,ENE,74,7.1,9.8,68,0.00,,,0.00,WUHU21623XXSP,2013-03-29 16:08:00,
2013-03-29 09:13:00,57.0,46.7,29.93,NE,45,5.8,10.5,68,0.00,,,0.00,WUHU21623XXSP,2013-03-29 16:13:00,
2013-03-29 09:18:00,57.4,46.7,29.93,NE,45,8.9,11.0,67,0.00,,,0.00,WUHU21623XXSP,2013-03-29 16:18:00,
2013-03-29 09:23:00,57.5,46.8,29.94,NE,44,8.4,15.9,67,0.00,,,0.00,WUHU21623XXSP,2013-03-29 16:23:00,
2013-03-29 09:28:00,57.9,47.1,29.94,NE,44,9.0,15.9,67,0.00,,,0.00,WUHU21623XXSP,2013-03-29 16:28:00,
2013-03-29 09:33:00,58.1,46.9,29.94,NE,41,9.6,13.4,66,0.00,,,0.00,WUHU21623XXSP,2013-03-29 16:33:00,
2013-03-29 09:38:00,58.4,47.2,29.94,NE,45,9.8,10.1,66,0.00,,,0.00,WUHU21623XXSP,2013-03-29 16:38:00,
2013-03-29 09:43:00,58.6,47.4,29.94,NE,45,13.2,19.0,66,0.00,,,0.00,WUHU21623XXSP,2013-03-29 16:43:00,
2013-03-29 09:48:00,59.0,47.8,29.94,NNE,22,15.9,19.0,66,0.00,,,0.00,WUHU21623XXSP,2013-03-29 16:48:00,
2013-03-29 09:53:00,59.2,47.6,29.94,NE,45,17.7,20.6,65,0.00,,,0.00,WUHU21623XXSP,2013-03-29 16:53:00,
2013-03-29 09:58:00,59.5,47.9,29.94,NNE,22,12.8,25.1,65,0.00,,,0.00,WUHU21623XXSP,2013-03-29 16:58:00,
2013-03-29 10:03:00,59.9,48.3,29.94,NNE,22,12.8,25.1,65,0.00,,,0.00,WUHU21623XXSP,2013-03-29 17:03:00,
2013-03-29 10:08:00,60.2,48.1,29.94,NNE,22,14.8,19.2,64,0.00,,,0.00,WUHU21623XXSP,2013-03-29 17:08:00,
2013-03-29 10:13:00,60.4,47.9,29.94,NNE,22,20.8,20.8,63,0.00,,,0.00,WUHU21623XXSP,2013-03-29 17:13:00,
2013-03-29 10:18:00,60.8,48.3,29.94,NNE,22,13.4,20.8,63,0.00,,,0.00,WUHU21623XXSP,2013-03-29 17:18:00,
2013-03-29 10:24:00,60.8,48.3,29.94,NNE,22,18.3,20.1,63,0.00,,,0.00,WUHU21623XXSP,2013-03-29 17:24:00,
2013-03-29 10:30:00,61.1,48.6,29.94,NE,45,10.3,18.8,63,0.00,,,0.00,WUHU21623XXSP,2013-03-29 17:30:00,
2013-03-29 10:35:00,61.5,48.5,29.94,NNE,22,10.7,18.8,62,0.00,,,0.00,WUHU21623XXSP,2013-03-29 17:35:00,
2013-03-29 10:40:00,61.9,48.9,29.94,NNE,15,12.8,20.4,62,0.00,,,0.00,WUHU21623XXSP,2013-03-29 17:40:00,
2013-03-29 10:45:00,62.0,48.5,29.94,NNE,22,15.2,20.4,61,0.00,,,0.00,WUHU21623XXSP,2013-03-29 17:45:00,
2013-03-29 10:50:00,62.4,48.9,29.94,NNE,22,12.8,18.6,61,0.00,,,0.00,WUHU21623XXSP,2013-03-29 17:50:00,
2013-03-29 10:55:00,62.8,49.3,29.93,North,0,18.1,21.5,61,0.00,,,0.00,WUHU21623XXSP,2013-03-29 17:55:00,
2013-03-29 11:00:00,62.9,49.4,29.94,North,0,17.7,21.5,61,0.00,,,0.00,WUHU21623XXSP,2013-03-29 18:00:00,
2013-03-29 11:05:00,63.5,49.5,29.94,North,0,15.2,23.0,60,0.00,,,0.00,WUHU21623XXSP,2013-03-29 18:05:00,
2013-03-29 11:10:00,63.7,49.7,29.93,North,8,16.7,23.0,60,0.00,,,0.00,WUHU21623XXSP,2013-03-29 18:10:00,
2013-03-29 11:15:00,64.0,50.0,29.93,North,0,17.4,26.6,60,0.00,,,0.00,WUHU21623XXSP,2013-03-29 18:15:00,
2013-03-29 11:20:00,64.4,49.9,29.93,NNE,22,16.1,26.6,59,0.00,,,0.00,WUHU21623XXSP,2013-03-29 18:20:00,
2013-03-29 11:25:00,64.6,50.1,29.93,NNE,22,11.4,19.7,59,0.00,,,0.00,WUHU21623XXSP,2013-03-29 18:25:00,
2013-03-29 11:30:00,64.7,50.2,29.93,NNE,22,18.1,19.0,59,0.00,,,0.00,WUHU21623XXSP,2013-03-29 18:30:00,
2013-03-29 11:35:00,64.9,49.9,29.93,North,0,15.2,21.0,58,0.00,,,0.00,WUHU21623XXSP,2013-03-29 18:35:00,
2013-03-29 11:40:00,65.3,50.3,29.93,NNE,22,13.0,21.0,58,0.00,,,0.00,WUHU21623XXSP,2013-03-29 18:40:00,
2013-03-29 11:45:00,65.5,50.5,29.94,NNW,337,27.1,27.1,58,0.00,,,0.00,WUHU21623XXSP,2013-03-29 18:45:00,
2013-03-29 11:50:00,65.6,50.6,29.94,North,0,13.0,27.1,58,0.00,,,0.00,WUHU21623XXSP,2013-03-29 18:50:00,
2013-03-29 11:55:00,65.8,50.3,29.94,NNE,22,9.8,26.2,57,0.00,,,0.00,WUHU21623XXSP,2013-03-29 18:55:00,
2013-03-29 12:00:00,66.2,50.6,29.94,NNE,22,13.0,18.1,57,0.00,,,0.00,WUHU21623XXSP,2013-03-29 19:00:00,
2013-03-29 12:05:00,66.5,50.9,29.94,NNE,15,14.9,20.8,57,0.00,,,0.00,WUHU21623XXSP,2013-03-29 19:05:00,
2013-03-29 12:10:00,66.7,50.6,29.93,NNE,22,15.9,21.3,56,0.00,,,0.00,WUHU21623XXSP,2013-03-29 19:10:00,
2013-03-29 12:15:00,66.7,50.6,29.93,NNE,22,18.8,21.3,56,0.00,,,0.00,WUHU21623XXSP,2013-03-29 19:15:00,
2013-03-29 12:20:00,67.1,51.0,29.93,NNE,22,16.3,20.8,56,0.00,,,0.00,WUHU21623XXSP,2013-03-29 19:20:00,
2013-03-29 12:25:00,67.4,50.8,29.93,North,0,17.9,20.8,55,0.00,,,0.00,WUHU21623XXSP,2013-03-29 19:25:00,
2013-03-29 12:30:00,67.6,51.0,29.93,North,0,16.3,21.7,55,0.00,,,0.00,WUHU21623XXSP,2013-03-29 19:30:00,
2013-03-29 12:35:00,67.8,51.2,29.93,NNE,22,10.1,21.7,55,0.00,,,0.00,WUHU21623XXSP,2013-03-29 19:35:00,
2013-03-29 12:40:00,68.2,51.5,29.93,NE,45,13.2,19.0,55,0.00,,,0.00,WUHU21623XXSP,2013-03-29 19:40:00,
2013-03-29 12:45:00,68.3,51.6,29.93,North,0,19.5,19.5,55,0.00,,,0.00,WUHU21623XXSP,2013-03-29 19:45:00,
2013-03-29 12:50:00,68.5,51.3,29.93,North,0,13.6,19.5,54,0.00,,,0.00,WUHU21623XXSP,2013-03-29 19:50:00,
2013-03-29 12:55:00,68.7,51.5,29.93,North,0,7.4,19.2,54,0.00,,,0.00,WUHU21623XXSP,2013-03-29 19:55:00,
2013-03-29 13:00:00,68.9,51.7,29.93,North,0,18.8,19.2,54,0.00,,,0.00,WUHU21623XXSP,2013-03-29 20:00:00,
2013-03-29 13:05:00,69.1,51.9,29.93,North,0,7.6,21.5,54,0.00,,,0.00,WUHU21623XXSP,2013-03-29 20:05:00,
2013-03-29 13:10:00,69.2,52.0,29.93,North,0,13.6,21.5,54,0.00,,,0.00,WUHU21623XXSP,2013-03-29 20:10:00,
2013-03-29 13:15:00,69.4,52.1,29.93,North,0,9.8,18.8,54,0.00,,,0.00,WUHU21623XXSP,2013-03-29 20:15:00,
2013-03-29 13:20:00,69.8,52.5,29.93,ENE,67,11.0,18.8,54,0.00,,,0.00,WUHU21623XXSP,2013-03-29 20:20:00,
2013-03-29 13:25:00,70.0,52.2,29.92,NNE,22,12.1,18.8,53,0.00,,,0.00,WUHU21623XXSP,2013-03-29 20:25:00,
2013-03-29 13:30:00,70.3,52.5,29.93,North,0,10.1,17.7,53,0.00,,,0.00,WUHU21623XXSP,2013-03-29 20:30:00,
2013-03-29 13:35:00,70.5,52.7,29.93,NNE,22,12.1,17.7,53,0.00,,,0.00,WUHU21623XXSP,2013-03-29 20:35:00,
2013-03-29 13:40:00,70.7,52.3,29.93,North,9,9.9,15.7,52,0.00,,,0.00,WUHU21623XXSP,2013-03-29 20:40:00,
2013-03-29 13:45:00,71.0,52.6,29.93,NNW,337,10.1,15.7,52,0.00,,,0.00,WUHU21623XXSP,2013-03-29 20:45:00,
2013-03-29 13:50:00,71.0,52.6,29.92,North,0,13.2,15.7,52,0.00,,,0.00,WUHU21623XXSP,2013-03-29 20:50:00,
2013-03-29 13:55:00,71.2,52.8,29.92,NNW,337,13.4,15.7,52,0.00,,,0.00,WUHU21623XXSP,2013-03-29 20:55:00,
2013-03-29 14:00:00,71.2,52.8,29.92,North,0,8.7,15.9,52,0.00,,,0.00,WUHU21623XXSP,2013-03-29 21:00:00,
2013-03-29 14:05:00,71.6,53.1,29.92,NNE,22,8.7,15.9,52,0.00,,,0.00,WUHU21623XXSP,2013-03-29 21:05:00,
2013-03-29 14:10:00,71.6,52.6,29.92,North,0,8.7,13.2,51,0.00,,,0.00,WUHU21623XXSP,2013-03-29 21:10:00,
2013-03-29 14:15:00,71.8,52.8,29.92,NNW,337,9.2,13.4,51,0.00,,,0.00,WUHU21623XXSP,2013-03-29 21:15:00,
2013-03-29 14:20:00,71.9,52.9,29.92,North,0,12.8,13.4,51,0.00,,,0.00,WUHU21623XXSP,2013-03-29 21:20:00,
2013-03-29 14:25:00,72.1,53.1,29.92,North,0,4.9,12.8,51,0.00,,,0.00,WUHU21623XXSP,2013-03-29 21:25:00,
2013-03-29 14:30:00,72.1,53.1,29.91,North,0,11.6,11.6,51,0.00,,,0.00,WUHU21623XXSP,2013-03-29 21:30:00,
2013-03-29 14:35:00,72.5,53.4,29.91,North,0,11.4,13.2,51,0.00,,,0.00,WUHU21623XXSP,2013-03-29 21:35:00,
2013-03-29 14:40:00,72.7,53.1,29.91,North,0,13.4,13.4,50,0.00,,,0.00,WUHU21623XXSP,2013-03-29 21:40:00,
2013-03-29 14:45:00,72.8,53.1,29.90,North,0,0.0,13.4,50,0.00,,,0.00,WUHU21623XXSP,2013-03-29 21:45:00,
2013-03-29 14:51:00,73.0,53.3,29.91,North,0,4.0,13.4,50,0.00,,,0.00,WUHU21623XXSP,2013-03-29 21:51:00,
2013-03-29 14:56:00,73.6,53.3,29.91,ENE,67,0.9,9.8,49,0.00,,,0.00,WUHU21623XXSP,2013-03-29 21:56:00,
2013-03-29 15:01:00,73.9,53.6,29.91,NNW,337,5.1,11.9,49,0.00,,,0.00,WUHU21623XXSP,2013-03-29 22:01:00,
2013-03-29 15:06:00,74.1,53.2,29.90,North,0,5.1,11.9,48,0.00,,,0.00,WUHU21623XXSP,2013-03-29 22:06:00,
2013-03-29 15:11:00,74.3,53.4,29.90,North,0,5.1,11.0,48,0.00,,,0.00,WUHU21623XXSP,2013-03-29 22:11:00,
2013-03-29 15:16:00,74.8,53.8,29.90,NNW,337,7.4,12.3,48,0.00,,,0.00,WUHU21623XXSP,2013-03-29 22:16:00,
2013-03-29 15:21:00,75.0,53.4,29.89,NNE,22,4.3,12.8,47,0.00,,,0.00,WUHU21623XXSP,2013-03-29 22:21:00,
2013-03-29 15:26:00,75.4,53.8,29.89,NNW,337,8.3,12.8,47,0.00,,,0.00,WUHU21623XXSP,2013-03-29 22:26:00,
2013-03-29 15:31:00,75.5,53.3,29.89,NW,315,7.8,10.1,46,0.00,,,0.00,WUHU21623XXSP,2013-03-29 22:31:00,
2013-03-29 15:36:00,75.5,53.3,29.89,NNW,337,5.6,13.0,46,0.00,,,0.00,WUHU21623XXSP,2013-03-29 22:36:00,
2013-03-29 15:41:00,75.7,53.5,29.89,NNE,22,8.3,13.2,46,0.00,,,0.00,WUHU21623XXSP,2013-03-29 22:41:00,
2013-03-29 15:46:00,75.7,52.8,29.89,North,0,2.9,13.2,45,0.00,,,0.00,WUHU21623XXSP,2013-03-29 22:46:00,
2013-03-29 15:51:00,75.7,52.8,29.89,North,0,8.7,11.4,45,0.00,,,0.00,WUHU21623XXSP,2013-03-29 22:51:00,
2013-03-29 15:56:00,75.7,52.8,29.89,NW,315,5.8,11.9,45,0.00,,,0.00,WUHU21623XXSP,2013-03-29 22:56:00,
2013-03-29 16:01:00,75.5,52.7,29.89,NNW,337,0.0,11.9,45,0.00,,,0.00,WUHU21623XXSP,2013-03-29 23:01:00,
2013-03-29 16:06:00,75.4,52.6,29.89,WNW,292,0.0,7.6,45,0.00,,,0.00,WUHU21623XXSP,2013-03-29 23:06:00,
2013-03-29 16:11:00,75.2,52.4,29.89,NW,315,0.0,1.1,45,0.00,,,0.00,WUHU21623XXSP,2013-03-29 23:11:00,
2013-03-29 16:16:00,75.4,52.6,29.89,NW,315,0.0,1.1,45,0.00,,,0.00,WUHU21623XXSP,2013-03-29 23:16:00,
2013-03-29 16:21:00,75.2,52.4,29.88,North,0,4.3,6.9,45,0.00,,,0.00,WUHU21623XXSP,2013-03-29 23:21:00,
2013-03-29 16:26:00,74.8,52.0,29.88,North,0,5.8,10.5,45,0.00,,,0.00,WUHU21623XXSP,2013-03-29 23:26:00,
2013-03-29 16:31:00,74.8,52.6,29.88,North,0,0.0,10.5,46,0.00,,,0.00,WUHU21623XXSP,2013-03-29 23:31:00,
2013-03-29 16:36:00,74.6,52.5,29.88,North,0,4.9,9.2,46,0.00,,,0.00,WUHU21623XXSP,2013-03-29 23:36:00,
2013-03-29 16:41:00,74.6,53.1,29.88,North,0,9.2,11.6,47,0.00,,,0.00,WUHU21623XXSP,2013-03-29 23:41:00,
2013-03-29 16:47:00,74.5,53.0,29.88,North,0,3.1,11.6,47,0.00,,,0.00,WUHU21623XXSP,2013-03-29 23:47:00,
2013-03-29 16:52:00,74.3,52.8,29.88,North,0,2.2,9.4,47,0.00,,,0.00,WUHU21623XXSP,2013-03-29 23:52:00,
2013-03-29 16:57:00,74.1,52.6,29.87,NNE,22,6.7,7.8,47,0.00,,,0.00,WUHU21623XXSP,2013-03-29 23:57:00,
2013-03-29 17:02:00,73.9,52.4,29.88,North,0,6.0,7.8,47,0.00,,,0.00,WUHU21623XXSP,2013-03-30 00:02:00,
2013-03-29 17:07:00,73.9,52.4,29.88,North,0,3.6,7.8,47,0.00,,,0.00,WUHU21623XXSP,2013-03-30 00:07:00,
2013-03-29 17:12:00,73.7,52.2,29.88,NE,45,0.0,7.4,47,0.00,,,0.00,WUHU21623XXSP,2013-03-30 00:12:00,
2013-03-29 17:17:00,73.7,52.2,29.88,NNE,22,7.4,7.4,47,0.00,,,0.00,WUHU21623XXSP,2013-03-30 00:17:00,
2013-03-29 17:22:00,73.7,52.2,29.87,NNE,22,13.6,15.9,47,0.00,,,0.00,WUHU21623XXSP,2013-03-30 00:22:00,
2013-03-29 17:27:00,73.9,52.4,29.87,North,0,12.3,16.3,47,0.00,,,0.00,WUHU21623XXSP,2013-03-30 00:27:00,
2013-03-29 17:32:00,73.9,53.0,29.87,North,0,11.4,16.3,48,0.00,,,0.00,WUHU21623XXSP,2013-03-30 00:32:00,
2013-03-29 17:37:00,73.7,52.8,29.87,NNE,22,6.5,15.9,48,0.00,,,0.00,WUHU21623XXSP,2013-03-30 00:37:00,
2013-03-29 17:42:00,73.7,52.8,29.87,North,0,11.0,15.9,48,0.00,,,0.00,WUHU21623XXSP,2013-03-30 00:42:00,
2013-03-29 17:47:00,73.6,52.7,29.87,North,0,9.2,15.0,48,0.00,,,0.00,WUHU21623XXSP,2013-03-30 00:47:00,
2013-03-29 17:52:00,73.4,52.6,29.87,North,0,10.5,15.0,48,0.00,,,0.00,WUHU21623XXSP,2013-03-30 00:52:00,
2013-03-29 17:57:00,73.4,52.6,29.87,North,0,10.7,15.9,48,0.00,,,0.00,WUHU21623XXSP,2013-03-30 00:57:00,
2013-03-29 18:02:00,73.4,52.6,29.87,North,0,7.8,15.9,48,0.00,,,0.00,WUHU21623XXSP,2013-03-30 01:02:00,
2013-03-29 18:08:00,73.0,52.2,29.88,NNE,22,8.7,12.8,48,0.00,,,0.00,WUHU21623XXSP,2013-03-30 01:08:00,
2013-03-29 18:13:00,72.8,52.0,29.88,North,0,6.9,12.8,48,0.00,,,0.00,WUHU21623XXSP,2013-03-30 01:13:00,
2013-03-29 18:18:00,72.8,52.6,29.87,NNE,22,9.6,13.2,49,0.00,,,0.00,WUHU21623XXSP,2013-03-30 01:18:00,
2013-03-29 18:23:00,73.0,52.8,29.88,NNE,22,4.5,13.2,49,0.00,,,0.00,WUHU21623XXSP,2013-03-30 01:23:00,
2013-03-29 18:28:00,73.0,52.8,29.88,NNE,22,11.9,12.8,49,0.00,,,0.00,WUHU21623XXSP,2013-03-30 01:28:00,
2013-03-29 18:33:00,72.8,52.6,29.88,NNE,22,6.9,12.1,49,0.00,,,0.00,WUHU21623XXSP,2013-03-30 01:33:00,
2013-03-29 18:38:00,72.5,52.3,29.88,North,0,11.9,12.1,49,0.00,,,0.00,WUHU21623XXSP,2013-03-30 01:38:00,
2013-03-29 18:43:00,72.1,51.9,29.88,North,0,5.4,11.9,49,0.00,,,0.00,WUHU21623XXSP,2013-03-30 01:43:00,
2013-03-29 18:48:00,71.9,51.8,29.88,NNE,22,8.3,12.5,49,0.00,,,0.00,WUHU21623XXSP,2013-03-30 01:48:00,
2013-03-29 18:53:00,71.6,52.0,29.88,NE,45,7.4,12.5,50,0.00,,,0.00,WUHU21623XXSP,2013-03-30 01:53:00,
2013-03-29 18:58:00,71.6,52.0,29.87,North,0,2.9,11.9,50,0.00,,,0.00,WUHU21623XXSP,2013-03-30 01:58:00,
2013-03-29 19:03:00,71.8,52.2,29.88,West,270,0.0,11.2,50,0.00,,,0.00,WUHU21623XXSP,2013-03-30 02:03:00,
2013-03-29 19:08:00,71.6,52.0,29.88,WSW,247,0.0,6.0,50,0.00,,,0.00,WUHU21623XXSP,2013-03-30 02:08:00,
2013-03-29 19:13:00,71.2,51.7,29.87,WSW,247,0.0,1.1,50,0.00,,,0.00,WUHU21623XXSP,2013-03-30 02:13:00,
2013-03-29 19:18:00,71.0,51.5,29.87,WSW,247,8.1,8.1,50,0.00,,,0.00,WUHU21623XXSP,2013-03-30 02:18:00,
2013-03-29 19:23:00,70.7,51.2,29.87,WSW,247,3.6,10.5,50,0.00,,,0.00,WUHU21623XXSP,2013-03-30 02:23:00,
2013-03-29 19:28:00,70.3,50.8,29.88,SW,225,0.0,10.5,50,0.00,,,0.00,WUHU21623XXSP,2013-03-30 02:28:00,
2013-03-29 19:33:00,69.8,50.4,29.87,SW,225,0.0,7.4,50,0.00,,,0.00,WUHU21623XXSP,2013-03-30 02:33:00,
2013-03-29 19:38:00,69.6,50.7,29.87,SW,225,0.0,4.9,51,0.00,,,0.00,WUHU21623XXSP,2013-03-30 02:38:00,
2013-03-29 19:43:00,69.8,50.9,29.87,SE,135,0.0,1.8,51,0.00,,,0.00,WUHU21623XXSP,2013-03-30 02:43:00,
2013-03-29 19:48:00,69.4,50.6,29.88,East,90,0.0,0.0,51,0.00,,,0.00,WUHU21623XXSP,2013-03-30 02:48:00,
2013-03-29 19:53:00,69.2,50.4,29.88,SE,135,0.0,0.0,51,0.00,,,0.00,WUHU21623XXSP,2013-03-30 02:53:00,
2013-03-29 19:58:00,68.9,50.1,29.88,SE,135,0.0,0.0,51,0.00,,,0.00,WUHU21623XXSP,2013-03-30 02:58:00,
2013-03-29 20:03:00,68.7,49.9,29.88,SE,135,0.0,0.0,51,0.00,,,0.00,WUHU21623XXSP,2013-03-30 03:03:00,
2013-03-29 20:08:00,68.3,50.1,29.89,SSW,202,0.0,0.0,52,0.00,,,0.00,WUHU21623XXSP,2013-03-30 03:08:00,
2013-03-29 20:13:00,68.2,50.0,29.88,WSW,247,0.0,0.0,52,0.00,,,0.00,WUHU21623XXSP,2013-03-30 03:13:00,
2013-03-29 20:18:00,67.8,49.6,29.87,SW,225,0.0,0.0,52,0.00,,,0.00,WUHU21623XXSP,2013-03-30 03:18:00,
2013-03-29 20:23:00,67.6,49.4,29.88,WSW,247,0.0,0.0,52,0.00,,,0.00,WUHU21623XXSP,2013-03-30 03:23:00,
2013-03-29 20:28:00,67.3,49.1,29.88,WSW,247,0.0,0.0,52,0.00,,,0.00,WUHU21623XXSP,2013-03-30 03:28:00,
2013-03-29 20:33:00,66.7,48.6,29.88,SW,225,0.0,0.0,52,0.00,,,0.00,WUHU21623XXSP,2013-03-30 03:33:00,
2013-03-29 20:38:00,66.2,48.6,29.89,SW,225,0.0,0.0,53,0.00,,,0.00,WUHU21623XXSP,2013-03-30 03:38:00,
2013-03-29 20:43:00,65.8,48.3,29.89,SW,225,0.0,0.0,53,0.00,,,0.00,WUHU21623XXSP,2013-03-30 03:43:00,
2013-03-29 20:48:00,65.8,48.3,29.89,SW,225,0.0,0.0,53,0.00,,,0.00,WUHU21623XXSP,2013-03-30 03:48:00,
2013-03-29 20:53:00,65.5,48.0,29.89,SW,225,0.0,0.0,53,0.00,,,0.00,WUHU21623XXSP,2013-03-30 03:53:00,
2013-03-29 20:58:00,65.3,48.3,29.89,South,180,0.0,0.0,54,0.00,,,0.00,WUHU21623XXSP,2013-03-30 03:58:00,
2013-03-29 21:00:00,65.3,48.3,29.89,SSE,157,0.0,0.0,54,0.00,,,0.00,WUHU21623XXSP,2013-03-30 04:00:00,
2013-03-29 21:05:00,65.6,48.6,29.89,SE,135,0.0,0.0,54,0.00,,,0.00,WUHU21623XXSP,2013-03-30 04:05:00,
2013-03-29 21:10:00,65.5,48.5,29.89,SE,135,0.0,0.0,54,0.00,,,0.00,WUHU21623XXSP,2013-03-30 04:10:00,
2013-03-29 21:15:00,65.3,47.8,29.90,SE,135,0.0,0.0,53,0.00,,,0.00,WUHU21623XXSP,2013-03-30 04:15:00,
2013-03-29 21:20:00,65.3,47.8,29.89,SE,135,0.0,0.0,53,0.00,,,0.00,WUHU21623XXSP,2013-03-30 04:20:00,
2013-03-29 21:25:00,64.9,47.9,29.90,SE,135,0.0,0.0,54,0.00,,,0.00,WUHU21623XXSP,2013-03-30 04:25:00,
2013-03-29 21:30:00,64.6,47.7,29.90,SE,135,0.0,0.0,54,0.00,,,0.00,WUHU21623XXSP,2013-03-30 04:30:00,
2013-03-29 21:35:00,64.4,47.5,29.90,SE,135,0.0,0.0,54,0.00,,,0.00,WUHU21623XXSP,2013-03-30 04:35:00,
2013-03-29 21:40:00,64.0,47.1,29.90,ENE,67,0.0,0.9,54,0.00,,,0.00,WUHU21623XXSP,2013-03-30 04:40:00,
2013-03-29 21:45:00,63.8,47.4,29.90,ENE,67,0.0,0.9,55,0.00,,,0.00,WUHU21623XXSP,2013-03-30 04:45:00,
2013-03-29 21:50:00,63.5,47.1,29.89,ENE,67,1.1,1.1,55,0.00,,,0.00,WUHU21623XXSP,2013-03-30 04:50:00,
2013-03-29 21:55:00,63.1,46.8,29.89,ENE,67,0.0,1.1,55,0.00,,,0.00,WUHU21623XXSP,2013-03-30 04:55:00,
2013-03-29 22:00:00,62.9,47.1,29.90,ENE,67,0.0,0.0,56,0.00,,,0.00,WUHU21623XXSP,2013-03-30 05:00:00,
2013-03-29 22:05:00,62.8,47.0,29.90,ENE,67,0.0,0.0,56,0.00,,,0.00,WUHU21623XXSP,2013-03-30 05:05:00,
2013-03-29 22:10:00,62.6,46.8,29.90,ENE,67,0.0,0.0,56,0.00,,,0.00,WUHU21623XXSP,2013-03-30 05:10:00,
2013-03-29 22:15:00,62.2,46.4,29.90,ENE,67,0.0,0.0,56,0.00,,,0.00,WUHU21623XXSP,2013-03-30 05:15:00,
2013-03-29 22:20:00,62.2,46.4,29.90,ENE,67,0.0,0.0,56,0.00,,,0.00,WUHU21623XXSP,2013-03-30 05:20:00,
2013-03-29 22:25:00,62.8,47.0,29.90,ENE,67,0.0,0.0,56,0.00,,,0.00,WUHU21623XXSP,2013-03-30 05:25:00,
2013-03-29 22:30:00,63.1,46.8,29.90,NNE,22,0.0,0.0,55,0.00,,,0.00,WUHU21623XXSP,2013-03-30 05:30:00,
2013-03-29 22:35:00,62.9,46.6,29.90,NNE,22,0.0,0.0,55,0.00,,,0.00,WUHU21623XXSP,2013-03-30 05:35:00,
2013-03-29 22:41:00,62.6,46.8,29.90,NNE,22,0.0,0.0,56,0.00,,,0.00,WUHU21623XXSP,2013-03-30 05:41:00,
2013-03-29 22:46:00,62.2,46.4,29.90,NNE,22,0.0,0.0,56,0.00,,,0.00,WUHU21623XXSP,2013-03-30 05:46:00,
2013-03-29 22:51:00,62.0,46.2,29.90,NNE,22,0.0,0.0,56,0.00,,,0.00,WUHU21623XXSP,2013-03-30 05:51:00,
2013-03-29 22:56:00,61.7,45.9,29.90,NE,45,0.0,0.0,56,0.00,,,0.00,WUHU21623XXSP,2013-03-30 05:56:00,
2013-03-29 23:01:00,61.3,46.0,29.90,NE,45,0.0,0.0,57,0.00,,,0.00,WUHU21623XXSP,2013-03-30 06:01:00,
2013-03-29 23:06:00,61.1,45.9,29.90,NE,45,0.0,0.0,57,0.00,,,0.00,WUHU21623XXSP,2013-03-30 06:06:00,
2013-03-29 23:11:00,61.1,45.9,29.89,ENE,67,0.0,0.0,57,0.00,,,0.00,WUHU21623XXSP,2013-03-30 06:11:00,
2013-03-29 23:16:00,61.0,45.8,29.89,ENE,67,0.0,0.0,57,0.00,,,0.00,WUHU21623XXSP,2013-03-30 06:16:00,
2013-03-29 23:21:00,60.4,45.7,29.89,ENE,67,0.0,0.0,58,0.00,,,0.00,WUHU21623XXSP,2013-03-30 06:21:00,
2013-03-29 23:26:00,60.2,45.5,29.89,SSW,202,0.0,0.0,58,0.00,,,0.00,WUHU21623XXSP,2013-03-30 06:26:00,
2013-03-29 23:31:00,60.1,45.4,29.89,SSW,202,0.0,0.0,58,0.00,,,0.00,WUHU21623XXSP,2013-03-30 06:31:00,
2013-03-29 23:36:00,59.7,45.5,29.89,NW,315,0.0,0.0,59,0.00,,,0.00,WUHU21623XXSP,2013-03-30 06:36:00,
2013-03-29 23:41:00,59.3,45.1,29.89,NW,315,0.0,0.0,59,0.00,,,0.00,WUHU21623XXSP,2013-03-30 06:41:00,
2013-03-29 23:46:00,59.2,45.0,29.89,NW,315,0.0,0.0,59,0.00,,,0.00,WUHU21623XXSP,2013-03-30 06:46:00,
2013-03-29 23:51:00,59.3,45.1,29.89,NW,315,0.0,0.0,59,0.00,,,0.00,WUHU21623XXSP,2013-03-30 06:51:00,
2013-03-29 23:56:00,59.5,44.8,29.89,NW,315,0.0,0.0,58,0.00,,,0.00,WUHU21623XXSP,2013-03-30 06:56:00,